To NAV CANADA Home Page Login to a new session Search on AWWS site Feedback and Comments Disclaimer Vers la page française équivalente Tips FAQ What's new on the site To the Forecasts and Observations / NOTAM section To "File a Flight Plan" website Publications and other links Update of the User's profile FIC Telephone Numbers My Weather Data Folder Route Weather Data Regional Weather Data Local Weather Data To the Forecasts and Observations / NOTAM section
Request Generated 10/22/2016 at 05:21:07 UTC . Weather information available at that time is displayed.



LWIS CYSK 220500Z AUTO 10004KT 070V130 M01/M06 A3021=
LWIS CYSK 220400Z AUTO 12005KT M00/M05 A3022=
LWIS CYSK 220300Z AUTO 15004KT M01/M05 A3022=

CYSK - No TAF is issued for this station

Your time UTC time
Weather data provided by Environment Canada and NAV CANADA